Aérodrome :
LOGIN :

S'inscrire | Disclaimer

   EN    FR    IT 

 










Légende :    VFR   VFR Marginal   IFR   IFR Intensif   IFR Très Intensif
Visi : 
Plafond : 
>= 8 km
>= 3000ft
5 à 8 km
1000 à 3000 ft
1500m à 5 km
500 à 1000 ft
800 à 1500m
200 à 500 ft
< 800m
< 200 ft
Symboles :   Orages  Brouillard  Fortes neiges  Fortes précipitations  Vent > 20 kt
SIGMETs :   Divers  Orages  Givrage  Turbulence  Onde Orograph.  Cendres Volcan.







- Altitude de l'aérodrome : 19 ft
- Code IATA : DJE


DTTJ - Djerba Zarzis

DERNIER METAR :
  • 261600Z 03020KT 6000 FEW016 20/15 Q1017 NOSIG

METARs EXPIRÉS :
  • 261500Z 03021KT 6000 SCT016 21/15 Q1017 NOSIG
  • 261430Z 04019KT 6000 SCT016 21/15 Q1016 NOSIG
  • 261400Z 03020KT 6000 SCT016 21/15 Q1017 NOSIG
  • 261330Z 03017KT 6000 SCT016 21/15 Q1017 NOSIG

TAF TAF DTTJ
Valide du 26 à 12h jusqu'au 27 à 12h UTC


261100Z 2612/2712 03014KT 5000 BKN016
BECMG 2615/2617 03017G29KT
PROB30
TEMPO 2617/2621 4000 SA
Pas de NOTAMs connus pour ce terrain.



MET'MAP, la Météo Aéronautique d'un coup d'oeil ! - Copyright ORBIFLY Décembre 2007 - Disclaimer

ORBIFLY MET'MAP TEAM :

Programmation & Développement : Alexandra Zaïnal
Conception & Développement : Baudouin d'Aumeries
Co-Programmation & Développement : Marc-Olivier Méhu
Soutien technique & logistique : Manuel Goepfert

Contact : metmap@orbifly.com




SOURCES & CREDITS :

   NOAA